TimeCDT,TemperatureF,Dew PointF,Humidity,Sea Level PressureIn,VisibilityMPH,Wind Direction,Wind SpeedMPH,Gust SpeedMPH,PrecipitationIn,Events,Conditions,WindDirDegrees,DateUTC
12:53 AM,26.1,21.0,81,29.60,1.8,SSE,24.2,35.7,0.01,Snow,Light Snow,150,2013-03-18 05:53:00
1:00 AM,26.6,21.2,80,29.55,2.0,SSE,24.2,34.5,0.00,Snow,Light Snow,150,2013-03-18 06:00:00
1:10 AM,26.6,21.2,80,29.54,1.5,SE,21.9,35.7,0.01,Snow,Light Snow,140,2013-03-18 06:10:00
1:22 AM,26.6,21.2,80,29.53,0.8,SE,25.3,35.7,0.01,Snow,Light Snow,140,2013-03-18 06:22:00
1:36 AM,26.6,21.2,80,29.52,1.0,SE,24.2,29.9,0.02,Snow,Light Snow,140,2013-03-18 06:36:00
1:45 AM,26.6,21.2,80,29.52,1.2,SE,23.0,34.5,0.02,Snow,Light Snow,140,2013-03-18 06:45:00
1:53 AM,27.0,23.0,85,29.57,0.8,SE,25.3,36.8,0.03,Snow,Light Snow,140,2013-03-18 06:53:00
2:03 AM,26.6,23.0,86,29.51,1.2,SSE,20.7,31.1,0.00,Snow,Light Snow,150,2013-03-18 07:03:00
2:10 AM,26.6,23.0,86,29.51,1.5,SE,20.7,31.1,0.01,Snow,Light Snow,140,2013-03-18 07:10:00
2:22 AM,26.6,23.0,86,29.50,1.5,SSE,21.9,34.5,0.01,Snow,Light Snow,150,2013-03-18 07:22:00
2:29 AM,28.4,23.0,80,29.50,2.0,SE,23.0,32.2,0.01,Snow,Light Snow,140,2013-03-18 07:29:00
2:53 AM,28.0,24.1,85,29.53,2.5,SE,20.7,32.2,0.02,Snow,Light Snow,140,2013-03-18 07:53:00
3:00 AM,28.4,24.8,86,29.48,3.0,SSE,17.3,33.4,0.00,Snow,Light Snow,150,2013-03-18 08:00:00
3:53 AM,30.0,26.1,85,29.49,3.0,SSE,20.7,29.9,0.01,Snow,Light Snow,150,2013-03-18 08:53:00
4:53 AM,30.9,27.0,85,29.47,4.0,South,6.9,-,0.00,Rain,Light Freezing Rain,180,2013-03-18 09:53:00
5:42 AM,30.2,28.4,93,29.42,2.0,WSW,18.4,24.2,0.01,Rain,Light Freezing Rain,250,2013-03-18 10:42:00
5:49 AM,28.4,24.8,86,29.42,3.0,West,16.1,24.2,0.01,Snow,Light Snow,260,2013-03-18 10:49:00
5:53 AM,28.0,24.1,85,29.46,4.0,West,20.7,-,0.01,Snow,Light Snow,270,2013-03-18 10:53:00
6:01 AM,26.6,23.0,86,29.42,5.0,West,24.2,29.9,0.00,Snow,Light Snow,280,2013-03-18 11:01:00
6:08 AM,26.6,21.2,80,29.43,3.0,West,21.9,29.9,0.00,Snow,Light Snow,280,2013-03-18 11:08:00
6:23 AM,24.8,19.4,80,29.43,2.0,WNW,24.2,33.4,0.00,Snow,Light Snow,290,2013-03-18 11:23:00
6:53 AM,21.9,18.0,85,29.49,1.2,WNW,31.1,35.7,0.00,Snow,Light Snow,290,2013-03-18 11:53:00
7:01 AM,21.2,17.6,86,29.45,0.5,WNW,26.5,34.5,0.00,Snow,Snow,290,2013-03-18 12:01:00
7:08 AM,21.2,17.6,86,29.45,1.0,WNW,26.5,34.5,0.00,Snow,Light Snow,290,2013-03-18 12:08:00
7:48 AM,19.4,14.0,80,29.47,0.5,WNW,29.9,36.8,0.01,,Overcast,290,2013-03-18 12:48:00
7:53 AM,19.0,14.0,81,29.52,0.8,WNW,27.6,36.8,0.01,,Overcast,290,2013-03-18 12:53:00
8:00 AM,19.4,14.0,80,29.48,1.0,WNW,26.5,-,0.00,,Overcast,290,2013-03-18 13:00:00
8:19 AM,17.6,12.2,79,29.49,0.8,WNW,28.8,36.8,0.00,Snow,Light Snow,290,2013-03-18 13:19:00
8:53 AM,17.1,12.0,81,29.56,0.2,WNW,26.5,36.8,0.00,Snow,Heavy Snow,290,2013-03-18 13:53:00
9:05 AM,15.8,12.2,86,29.51,0.2,WNW,28.8,41.4,0.00,Fog-Snow,Snow,300,2013-03-18 14:05:00
9:26 AM,15.8,10.4,79,29.54,0.2,WNW,27.6,36.8,0.00,Fog-Snow,Snow,300,2013-03-18 14:26:00
9:33 AM,15.8,10.4,79,29.54,0.2,WNW,28.8,38.0,0.00,Snow,Heavy Snow,290,2013-03-18 14:33:00
9:53 AM,15.1,10.0,80,29.61,0.2,WNW,32.2,44.9,0.00,Snow,Heavy Snow,300,2013-03-18 14:53:00
10:06 AM,14.0,8.6,79,29.57,0.2,WNW,28.8,40.3,0.01,Snow,Heavy Snow,300,2013-03-18 15:06:00
10:53 AM,14.0,9.0,80,29.65,0.2,WNW,29.9,40.3,0.01,Snow,Heavy Snow,300,2013-03-18 15:53:00
11:53 AM,14.0,9.0,80,29.69,0.5,WNW,26.5,38.0,0.00,Snow,Snow,300,2013-03-18 16:53:00
12:53 PM,15.1,9.0,77,29.72,1.0,WNW,31.1,38.0,0.01,Snow,Light Snow,300,2013-03-18 17:53:00
1:03 PM,15.8,8.6,73,29.68,0.8,NW,28.8,40.3,0.00,Snow,Light Snow,310,2013-03-18 18:03:00
1:25 PM,17.6,10.4,73,29.68,1.0,NW,27.6,36.8,0.00,Snow,Light Snow,310,2013-03-18 18:25:00
1:53 PM,17.1,9.0,71,29.75,2.0,NW,27.6,40.3,0.00,Snow,Light Snow,320,2013-03-18 18:53:00
2:03 PM,17.6,8.6,68,29.71,1.5,NW,32.2,39.1,0.00,Snow,Light Snow,310,2013-03-18 19:03:00
2:14 PM,17.6,10.4,73,29.72,2.5,NW,27.6,35.7,0.00,Snow,Light Snow,310,2013-03-18 19:14:00
2:24 PM,17.6,10.4,73,29.72,2.0,NW,28.8,35.7,0.00,Snow,Light Snow,310,2013-03-18 19:24:00
2:36 PM,17.6,8.6,68,29.73,2.5,NW,28.8,38.0,0.00,Snow,Light Snow,310,2013-03-18 19:36:00
2:50 PM,17.6,10.4,73,29.73,1.5,NW,24.2,36.8,0.00,Snow,Light Snow,310,2013-03-18 19:50:00
2:53 PM,17.1,10.0,74,29.78,1.2,NW,26.5,35.7,0.00,Snow,Light Snow,310,2013-03-18 19:53:00
3:37 PM,17.6,8.6,68,29.75,3.0,NW,32.2,42.6,0.00,Snow,Light Snow,320,2013-03-18 20:37:00
3:53 PM,17.1,9.0,71,29.80,5.0,NW,29.9,39.1,0.00,Snow,Light Snow,310,2013-03-18 20:53:00
4:43 PM,15.8,6.8,68,29.79,6.0,NW,31.1,39.1,N/A,Snow,Light Snow,310,2013-03-18 21:43:00
4:53 PM,16.0,8.1,71,29.84,4.0,NW,28.8,34.5,0.00,Snow,Light Snow,310,2013-03-18 21:53:00
5:53 PM,14.0,6.1,71,29.88,9.0,NW,24.2,34.5,0.00,Snow,Light Snow,310,2013-03-18 22:53:00
6:01 PM,14.0,6.8,73,29.83,9.0,NW,25.3,35.7,0.00,Snow,Light Snow,310,2013-03-18 23:01:00
6:53 PM,12.9,3.9,67,29.91,9.0,NW,21.9,32.2,0.00,Snow,Light Snow,310,2013-03-18 23:53:00
7:53 PM,10.9,3.0,70,29.94,10.0,NW,17.3,-,0.00,,Clear,310,2013-03-19 00:53:00
8:14 PM,10.4,1.4,67,29.90,10.0,WNW,18.4,-,N/A,,Mostly Cloudy,300,2013-03-19 01:14:00
8:35 PM,10.4,1.4,67,29.91,10.0,NW,18.4,26.5,N/A,,Scattered Clouds,310,2013-03-19 01:35:00
8:53 PM,10.0,1.9,70,29.98,10.0,WNW,17.3,-,N/A,,Clear,300,2013-03-19 01:53:00
9:53 PM,9.0,1.0,70,30.00,10.0,WNW,16.1,-,N/A,,Clear,300,2013-03-19 02:53:00
10:53 PM,8.1,-0.0,70,30.02,10.0,NW,17.3,-,N/A,,Clear,310,2013-03-19 03:53:00
11:53 PM,6.1,-2.0,69,30.04,10.0,WNW,13.8,-,N/A,,Clear,300,2013-03-19 04:53:00